Hourly Data Report for March 16, 2020

MIRAMICHI RCS
NEW BRUNSWICK
Current Station Operator: ECCC - MSC

47°00'34.000" N
65°27'54.000" W
33.00 m
8100989
71744
ACQ

Download Data

Hourly Data (March 2020)
Hourly Data Report for March 16, 2020
TIME
LST
Temp Definition
°C
Dew Point Definition
°C
Rel Hum Definition
%
Precip. Amount Definition
mm

Wind Dir Definition
10's deg

Wind Spd Definition
km/h
Visibility Definition
km
Stn Press Definition
kPa
Hmdx Definition


Wind Chill Definition


Weather Definition


00:00 -8.6 -16.5 53 LegendMM 30 9   102.68   -13 LegendNANA
01:00 -8.1 -16.0 53 LegendMM 30 10   102.73   -13 LegendNANA
02:00 -8.8 -16.3 55 LegendMM 30 12   102.77   -14 LegendNANA
03:00 -10.3 -17.2 57 LegendMM 30 13   102.79   -17 LegendNANA
04:00 -11.1 -17.6 59 LegendMM 27 10   102.79   -17 LegendNANA
05:00 -11.0 -17.5 59 LegendMM 29 13   102.84   -17 LegendNANA
06:00 -11.2 -17.3 61 LegendMM 31 10   102.93   -17 LegendNANA
07:00 -11.0 -16.8 62 LegendMM 33 6   103.01   -15 LegendNANA
08:00 -9.9 -16.1 61 LegendMM 33 9   103.12   -15 LegendNANA
09:00 -8.0 -15.1 57 LegendMM 33 9   103.19   -13 LegendNANA
10:00 -6.1 -14.0 54 LegendMM 36 10   103.21   -11 LegendNANA
11:00 -5.2 -13.3 53 LegendMM 3 12   103.22   -10 LegendNANA
12:00 -4.0 -12.9 50 LegendMM 6 10   103.20   -8 LegendNANA
13:00 -2.2 -12.4 45 LegendMM 24 4   103.18   -4 LegendNANA
14:00 -2.6 -11.6 50 LegendMM 11 10   103.14   -6 LegendNANA
15:00 -2.4 -11.3 50 LegendMM 9 11   103.13   -6 LegendNANA
16:00 -2.3 -10.4 54 LegendMM 9 10   103.09   -6 LegendNANA
17:00 -3.5 -10.2 60 LegendMM 7 15   103.05   -9 LegendNANA
18:00 -5.4 -10.8 66 LegendMM 9 16   103.04   -11 LegendNANA
19:00 -6.5 -11.1 69 LegendMM 13 15   103.08   -12 LegendNANA
20:00 -8.1 -11.7 75 LegendMM 12 12   103.07   -14 LegendNANA
21:00 -8.5 -11.9 76 LegendMM 15 11   103.03   -14 LegendNANA
22:00 -8.9 -12.0 78 LegendMM 18 8   103.00   -13 LegendNANA
23:00 -9.8 -12.6 80 LegendMM 17 6   102.96   -13 LegendNANA

Notes on Data Quality.

Legend

  • E = Estimated
  • M = Missing
  • NA = Not Available*
  • [empty] = Indicates an unobserved value
Date modified: